Location: Oriwa
(40.7500°S, 175.3333°E)
Time: 11:40:09
(UTC+00:00)

CZ-2C R/B - Pass Details

Date: 03 February 2023
Orbit: 488 x 546 km, 97.8° (Epoch: 30 March)

Event Time Altitude Azimuth Distance (km) Brightness Sun altitude
Rises 16:32:30 0° 14° (NNE) 2,711 6.2 -10.3°
Reaches altitude 10° 16:34:37 10° 14° (NNE) 1,818 5.3 -9.9°
Maximum altitude 16:38:34 89° 108° (ESE) 552 2.8 -9.3°
Drops below altitude 10° 16:42:29 10° 192° (SSW) 1,810 5.7 -8.7°
Sets 16:44:36 0° 192° (SSW) 2,697 6.6 -8.3°
